Probability
0 0 0 0 0 0 0 0 0 0 0 0 0 0 0 0 0 0 1 3 5 6 6 9 13 13 12 12 11 11 10 10 11 12 13 12 10 8 6 4 4 3 3 3 3 3 3 3 2
0 0 0 0 0 0 0 0 0 0 0 0 0 0 0 0 0 0 1 4 6 7 7 9 13 15 13 12 11 9 9 9 10 11 12 12 11 9 8 5 4 3 3 3 3 3 3 3 3
0 0 0 0 0 0 0 0 0 0 0 0 0 0 0 0 0 0 2 4 6 6 6 8 13 16 15 13 11 9 8 8 8 9 10 11 11 11 10 7 4 4 4 3 3 3 3 3 3
0 0 0 0 0 0 0 0 0 0 0 0 0 0 0 0 0 2 4 6 8 7 5 6 11 15 16 15 12 11 10 9 9 9 10 10 11 12 11 8 5 5 5 4 4 3 3 3 3
0 0 0 0 0 0 0 0 0 0 0 0 0 1 1 1 2 4 7 9 10 9 5 6 10 13 14 14 13 12 11 11 10 10 10 10 10 11 11 9 6 6 6 6 6 4 3 3 3
0 0 0 0 0 0 0 0 0 0 0 0 1 2 2 2 4 7 9 10 11 9 7 7 10 12 12 13 12 11 10 10 9 10 11 11 11 10 10 9 6 5 8 10 9 6 4 4 4
0 0 0 0 0 0 0 0 0 0 0 0 1 3 3 3 5 8 9 10 10 9 8 7 9 10 11 11 11 10 9 7 6 7 9 10 10 10 9 7 5 5 7 11 10 7 6 6 6
0 0 0 0 0 0 0 0 0 0 0 1 2 3 3 3 5 8 10 10 10 10 10 8 8 9 10 10 10 10 8 6 4 4 6 7 9 9 8 6 5 5 6 9 9 8 6 6 6
0 0 0 0 0 0 0 0 0 0 0 1 2 3 3 3 5 8 9 9 9 11 11 9 8 8 9 8 9 9 7 4 3 3 4 6 7 8 7 5 4 5 5 5 6 6 6 6 6
0 0 0 0 0 0 0 0 0 0 0 1 2 3 3 3 4 6 7 7 7 9 10 9 7 6 6 7 7 7 5 4 3 3 4 5 5 5 4 4 4 4 4 3 3 4 5 6 6
0 0 0 0 0 0 0 0 0 0 0 1 2 3 3 3 3 4 4 4 5 6 8 8 6 4 4 5 7 6 4 3 3 4 4 4 4 3 2 2 3 3 3 3 2 2 3 5 6
0 0 0 0 0 0 0 0 0 0 0 1 2 3 3 3 3 3 3 3 3 4 6 6 4 3 3 4 6 5 4 4 4 5 4 3 2 1 0 1 2 3 4 3 3 2 2 3 4
0 0 0 0 0 0 0 0 0 0 0 1 2 3 3 3 3 3 3 3 3 4 5 5 4 3 3 4 4 5 5 5 4 4 4 2 1 0 0 0 1 2 3 3 3 3 3 3 3
0 0 0 0 0 0 0 0 0 0 0 1 2 3 3 3 3 3 3 3 3 3 4 5 4 3 3 4 5 6 6 5 4 4 3 1 0 0 0 0 0 1 3 3 3 3 3 3 3
0 0 0 0 0 0 0 0 0 0 0 0 1 2 3 3 3 3 3 3 3 3 4 5 5 4 4 5 5 6 6 5 5 4 2 1 0 0 0 0 0 1 2 3 3 3 3 3 3
0 0 0 0 0 0 0 0 0 0 0 0 0 1 2 3 3 3 3 3 3 3 4 5 6 4 4 4 4 5 6 6 5 4 2 1 0 0 0 0 0 0 1 2 3 3 3 3 3
0 0 0 0 0 0 0 0 0 0 0 0 0 0 1 2 3 3 3 3 3 3 4 5 6 5 4 3 3 4 5 5 4 3 2 1 0 0 0 0 0 0 0 1 3 3 3 3 3
0 0 0 0 0 0 0 0 0 0 0 0 0 0 0 1 3 3 3 3 3 3 4 5 6 6 5 4 4 4 4 4 3 3 1 0 0 0 0 0 0 0 0 1 2 3 3 3 3
0 0 0 0 0 0 0 0 0 0 0 0 0 0 0 1 2 3 3 3 3 3 4 6 6 6 6 6 5 4 3 3 3 2 1 0 0 0 0 0 0 0 0 0 1 2 2 2 2
0 0 0 0 0 0 0 0 0 0 0 0 0 0 0 0 1 2 2 2 3 3 5 6 6 6 6 6 6 4 3 2 2 2 1 0 0 0 0 0 0 0 0 0 0 1 1 1 1
0 0 0 0 0 0 0 0 0 0 0 0 0 0 0 0 0 0 0 1 1 2 4 5 6 6 6 6 6 4 2 1 1 1 0 0 0 0 0 0 0 0 0 0 0 0 0 0 0
0 0 0 0 0 0 0 0 0 0 0 0 0 0 0 0 0 0 0 0 0 1 2 4 5 6 6 6 5 4 1 0 0 0 0 0 0 0 0 0 0 0 0 0 0 0 0 0 0
0 0 0 0 0 0 0 0 0 0 0 0 0 0 0 0 0 0 0 0 0 0 1 2 4 5 6 5 4 3 1 0 0 0 0 0 0 0 0 0 0 0 0 0 0 0 0 0 0
0 0 0 0 0 0 0 0 0 0 0 0 0 0 0 0 0 0 0 0 0 0 0 1 2 4 4 4 3 3 1 0 0 0 0 0 0 0 0 0 0 0 0 0 0 0 0 0 0
0 0 0 0 0 0 0 0 0 0 0 0 0 0 0 0 0 0 0 0 0 0 0 0 1 1 2 3 3 3 2 1 0 0 0 0 0 0 0 0 0 0 0 0 0 0 0 0 0
0 0 0 0 0 0 0 0 0 0 0 0 0 0 0 0 0 0 0 0 0 0 0 0 0 0 1 1 1 2 2 1 0 0 0 0 0 0 0 0 0 0 0 0 0 0 0 0 0
0 0 0 0 0 0 0 0 0 0 0 0 0 0 0 0 0 0 0 0 0 0 0 0 0 0 0 0 0 1 1 0 0 0 0 0 0 0 0 0 0 0 0 0 0 0 0 0 0
0 0 0 0 0 0 0 0 0 0 0 0 0 0 0 0 0 0 0 0 0 0 0 0 0 0 0 0 0 0 0 0 0 0 0 0 0 0 0 0 0 0 0 0 0 0 0 0 0
0 0 0 0 0 0 0 0 0 0 0 0 0 0 0 0 0 0 0 0 0 0 0 0 0 0 0 0 0 0 0 0 0 0 0 0 0 0 0 0 0 0 0 0 0 0 0 0 0
0 0 0 0 0 0 0 0 0 0 0 0 0 0 0 0 0 0 0 0 0 0 0 0 0 0 0 0 0 0 0 0 0 0 0 0 0 0 0 0 0 0 0 0 0 0 0 0 0
Wind_Speed
7 4 2 4 5 3 4 4 2 1 1 1 2 5 5 4 3 4 3 4 7 6 5 6 8 8 8 8 8 8 8 8 8 8 8 7 7 7 7 7 7 7 7 7 8 7 7 7 7
3 2 4 4 4 2 5 4 3 3 3 2 3 4 5 3 2 5 3 5 8 7 5 5 8 8 8 8 8 7 7 7 7 7 7 7 7 7 7 6 6 6 7 6 6 6 6 6 6
3 1 4 4 3 6 4 2 4 3 1 1 3 4 4 3 3 4 4 7 7 6 5 5 8 8 8 8 7 7 6 6 6 6 6 6 6 6 6 6 5 5 6 6 5 5 5 5 4
2 4 4 3 5 5 4 3 3 2 1 2 4 3 2 0 3 4 7 8 8 6 5 5 8 8 7 7 6 6 6 6 6 6 6 5 5 5 5 4 5 5 5 5 4 4 4 4 4
3 4 2 1 5 4 3 2 1 1 0 1 3 4 1 2 3 7 8 8 8 6 4 5 7 7 7 6 6 6 6 6 5 5 5 5 5 5 5 3 4 4 4 4 3 3 3 3 3
3 3 3 5 5 3 2 2 1 0 0 1 3 4 2 0 5 7 8 7 7 7 5 4 7 7 6 6 5 5 5 5 4 4 4 4 4 4 4 4 3 3 3 3 3 2 2 2 2
4 3 4 5 4 3 3 1 1 1 1 1 4 5 2 1 3 6 7 7 6 6 5 4 3 4 5 5 4 4 4 4 3 3 3 3 3 3 3 3 3 2 2 2 2 1 1 1 1
3 3 2 3 4 4 2 0 1 2 2 1 3 6 5 5 4 6 7 6 6 5 4 3 3 3 2 2 4 3 3 3 3 3 3 3 3 2 2 2 2 1 1 1 1 1 0 1 1
3 3 4 5 5 3 1 0 2 0 1 1 1 3 4 7 7 7 6 4 4 4 3 3 3 2 2 2 2 2 2 2 2 2 3 3 1 1 1 1 1 1 1 1 1 1 1 1 2
3 4 6 3 3 3 1 1 1 1 1 1 2 2 4 6 7 7 6 5 4 3 3 3 3 2 2 1 1 1 1 1 0 1 1 1 1 1 1 1 2 2 1 1 2 2 2 2 1
3 5 3 2 2 1 1 1 1 2 2 4 4 5 5 6 6 6 6 5 5 4 3 3 3 2 2 1 1 1 0 0 0 1 1 1 1 1 1 1 1 1 1 1 1 2 1 1 1
2 3 3 2 2 0 1 1 1 2 5 4 5 7 6 6 6 6 6 5 4 4 3 2 2 2 2 2 1 1 1 0 0 1 1 1 1 1 1 1 1 1 0 1 1 1 1 2 2
2 3 3 3 3 2 2 2 2 4 4 1 3 4 6 5 4 3 4 4 4 4 3 2 2 3 2 2 1 1 1 1 1 1 1 1 1 0 0 0 0 1 1 0 1 1 2 2 2
2 1 2 3 3 3 3 4 2 5 3 2 3 4 4 5 5 3 3 3 3 3 3 2 2 3 2 2 2 1 1 1 1 1 1 1 1 1 1 0 1 1 1 1 1 2 2 2 2
0 1 3 3 3 2 1 4 5 4 3 3 3 3 3 3 4 4 4 4 4 3 3 3 3 2 2 2 2 1 1 1 1 1 1 1 1 1 1 1 1 1 1 1 1 1 1 1 2
1 1 2 4 2 2 3 7 4 2 3 3 2 2 2 2 3 3 4 3 3 3 3 3 2 2 2 2 2 1 1 2 1 1 1 1 1 1 1 1 1 2 1 1 0 1 1 1 2
1 1 4 4 2 2 4 7 4 2 4 4 4 3 3 2 2 2 3 3 3 3 3 3 2 2 2 2 1 1 1 1 1 1 1 1 1 1 1 1 1 1 1 1 1 1 1 1 2
4 3 4 5 3 1 4 7 6 4 4 5 4 4 4 3 3 3 3 3 3 3 3 2 2 2 1 1 1 1 0 1 1 1 1 2 1 1 1 1 1 1 1 1 1 1 1 1 2
2 3 5 5 2 2 7 9 8 5 4 5 5 5 5 4 2 1 2 2 2 2 2 2 2 1 1 1 1 1 1 1 1 1 1 1 1 1 1 1 1 1 2 2 1 1 1 1 1
3 4 5 4 2 3 5 9 8 6 6 7 7 6 5 3 1 1 0 1 2 2 2 2 2 1 1 2 2 1 1 1 1 1 1 2 1 2 1 1 1 2 2 2 2 1 1 1 0
4 5 4 4 4 2 3 7 5 4 3 3 4 4 4 5 4 2 1 1 1 1 2 2 2 2 2 1 1 1 1 1 1 0 1 1 2 2 2 2 1 2 2 2 3 2 2 2 1
5 3 3 2 1 3 1 5 6 4 4 4 4 3 4 3 3 2 1 0 1 2 1 1 2 2 2 2 2 2 1 1 2 1 1 2 2 2 2 2 2 1 2 2 3 2 2 2 2
3 2 2 2 2 3 2 3 8 2 4 6 5 4 3 3 3 2 2 2 1 1 1 1 1 1 2 2 2 3 1 1 1 1 2 2 2 2 2 2 2 2 2 2 3 3 2 2 3
1 2 3 3 2 3 5 5 8 4 6 5 4 4 4 3 2 1 1 0 0 1 0 1 0 1 1 2 2 3 2 2 2 2 2 2 2 2 2 2 2 2 2 3 3 3 3 3 3
3 4 3 4 2 6 3 4 9 5 4 5 5 4 3 3 2 2 2 1 1 1 1 0 1 1 1 2 2 2 3 3 3 3 2 2 2 2 2 2 2 2 3 3 3 3 3 4 4
1 4 5 4 4 5 2 6 7 3 3 1 2 2 1 2 2 3 3 2 2 2 1 1 1 2 2 2 2 2 2 2 2 3 2 3 2 3 3 3 2 3 3 3 2 3 3 3 3
2 2 3 3 1 3 6 6 7 2 2 1 0 0 2 2 3 3 3 2 2 2 2 2 2 2 2 2 2 2 2 2 2 2 2 2 2 2 2 2 3 3 3 3 2 2 3 3 3
2 3 3 2 2 4 5 5 5 4 4 3 2 3 4 3 3 3 3 3 2 2 2 2 2 2 2 2 2 2 2 2 2 2 2 2 2 2 2 3 3 3 3 3 2 2 3 3 3
2 1 2 2 3 3 4 7 4 5 5 4 5 5 5 4 4 4 3 2 1 1 1 1 1 1 2 2 1 1 1 1 1 2 2 2 2 2 3 3 3 3 3 3 2 3 2 3 3
3 4 5 3 4 3 3 8 4 3 3 3 4 4 3 4 3 3 3 2 1 2 1 1 2 2 2 1 1 1 1 1 1 2 2 2 2 2 2 3 3 3 2 2 2 3 3 3 3
Wind_Direction
335 353 66 60 61 60 235 243 223 177 145 233 93 99 106 107 135 155 165 149 133 133 133 128 118 113 111 105 101 100 99 97 98 97 97 101 102 100 101 101 96 93 92 91 87 85 84 83 82
340 12 58 64 103 185 251 241 218 224 194 151 80 90 83 81 90 115 135 142 131 128 125 124 117 114 111 108 104 101 101 97 96 98 98 98 102 102 99 100 98 94 92 91 90 87 86 86 83
335 59 87 89 153 196 220 217 211 231 248 101 67 54 103 134 138 148 158 139 121 118 118 124 115 115 114 111 107 103 99 98 98 95 97 98 98 99 97 96 97 97 95 93 93 94 94 90 82
52 51 63 99 219 228 214 219 207 199 333 56 103 69 61 60 163 155 137 126 117 116 118 125 117 115 112 112 111 109 102 97 99 98 94 95 96 93 96 96 101 101 99 97 95 97 99 93 85
65 85 94 220 235 245 241 255 224 180 142 48 104 109 68 339 112 124 125 123 123 120 118 124 119 118 114 111 110 110 105 99 97 96 97 94 90 91 85 94 107 110 110 105 97 103 102 96 91
67 83 135 217 229 242 265 264 234 145 199 67 104 121 163 9 120 128 125 126 126 125 118 118 118 116 116 116 113 105 103 103 101 97 97 98 94 91 90 82 96 113 119 113 108 114 110 93 91
120 127 187 209 219 238 250 264 176 192 209 219 137 125 168 216 150 128 121 120 118 120 113 106 113 116 119 118 115 112 105 100 97 96 88 82 86 86 91 85 78 86 112 122 124 125 112 81 59
135 125 197 215 203 229 260 318 182 182 228 286 123 146 187 201 158 118 109 108 110 111 115 113 106 105 113 128 121 115 111 101 88 86 75 64 63 68 71 75 63 68 73 109 151 169 124 356 5
98 110 208 210 196 210 211 150 312 323 108 37 79 170 181 153 132 115 107 102 108 113 123 128 128 124 121 133 121 121 122 106 80 90 73 57 57 69 55 42 33 26 18 348 263 254 318 350 359
109 186 218 216 186 179 202 184 250 48 23 12 27 53 112 131 136 140 143 148 150 158 163 151 149 151 150 149 117 134 125 112 92 126 102 70 50 29 26 16 9 358 350 337 322 316 332 345 335
161 204 222 248 237 192 215 270 260 157 231 218 190 169 147 145 149 158 162 160 166 167 168 169 167 160 158 151 128 121 102 109 81 112 103 87 63 38 31 23 12 351 6 354 338 336 325 305 280
188 238 235 251 279 244 212 214 277 222 231 225 182 162 156 161 173 176 174 171 163 156 168 171 163 154 161 154 149 148 143 159 149 162 121 111 91 45 32 14 352 345 336 333 334 305 296 288 274
220 244 256 263 264 259 262 245 245 255 246 194 146 149 161 166 173 184 174 161 149 153 165 175 165 160 162 156 168 146 171 177 176 176 166 142 137 138 62 319 320 313 305 302 309 291 282 277 269
219 243 277 272 261 248 242 267 250 254 208 151 153 172 173 173 176 178 178 170 172 175 179 177 171 172 162 166 170 176 182 177 173 182 198 167 163 177 197 245 284 286 269 263 265 277 271 269 272
57 345 306 270 249 228 200 276 242 236 169 164 184 179 165 173 169 176 191 185 186 187 183 179 181 166 161 172 176 175 183 169 179 192 200 192 175 197 212 223 263 277 275 275 290 303 291 292 290
40 55 279 273 219 199 169 250 256 221 166 187 199 186 170 192 191 194 190 182 180 175 179 188 180 168 177 173 167 178 179 169 182 190 192 207 197 207 219 226 251 276 273 254 258 284 293 292 290
33 233 249 270 223 200 200 243 262 246 184 197 208 215 205 216 228 217 200 184 173 171 173 176 174 179 186 181 164 160 176 182 189 188 189 207 207 209 214 234 246 266 270 243 267 300 262 272 290
219 229 248 247 253 235 244 258 266 249 208 205 214 225 221 218 229 220 204 182 164 159 155 156 163 175 171 150 120 121 141 209 198 199 200 200 205 212 218 230 247 254 255 252 230 255 286 260 277
223 236 259 263 275 256 248 261 265 250 224 222 227 227 227 228 235 217 195 169 138 136 140 143 153 160 137 142 160 169 215 233 217 218 202 199 208 215 221 235 238 243 238 238 228 230 266 281 291
251 261 267 286 300 267 264 268 265 239 225 219 221 224 218 221 229 224 171 115 138 157 164 153 171 176 178 192 191 184 191 235 226 218 217 215 216 229 231 219 232 237 238 246 232 213 230 272 255
253 233 241 265 318 314 302 291 265 259 237 229 226 223 216 204 199 200 191 174 132 155 195 193 196 194 198 196 150 79 59 8 339 240 236 236 221 231 239 228 232 248 230 230 230 220 218 231 256
258 241 236 258 300 281 207 282 277 253 259 247 244 235 223 206 190 187 168 171 198 219 225 222 204 194 195 172 153 153 185 230 253 245 252 264 240 237 241 230 224 239 245 241 236 235 238 212 233
243 274 250 238 206 287 248 241 281 291 258 257 246 233 216 204 185 182 182 198 217 230 240 249 229 200 187 174 174 170 199 236 273 273 263 267 261 246 246 234 224 231 239 247 245 239 241 228 226
287 20 25 46 81 266 228 202 273 242 237 252 241 226 214 202 185 181 185 142 251 312 323 320 320 236 201 183 184 177 192 217 249 267 254 260 263 265 261 252 236 238 241 240 242 232 229 235 234
61 75 21 353 341 255 224 209 252 257 252 230 224 223 216 195 185 190 197 202 225 255 283 285 269 269 232 197 201 198 199 203 221 238 239 249 252 259 268 275 252 244 241 240 241 230 229 231 228
194 144 164 213 240 279 284 237 254 271 275 227 188 183 189 202 206 215 219 214 219 226 234 240 250 261 248 224 220 215 207 205 230 239 234 242 247 250 256 257 260 260 249 245 242 239 237 236 233
153 195 174 149 240 272 269 282 300 290 324 345 109 196 238 238 225 226 233 226 229 230 237 230 236 257 250 239 236 225 217 215 233 247 238 247 256 262 263 262 264 266 264 252 238 242 241 238 240
150 154 109 142 208 263 282 273 263 265 267 270 256 246 252 257 251 239 237 239 239 231 255 257 242 254 265 247 243 249 229 225 225 237 247 259 269 271 272 270 269 269 268 266 250 247 245 240 247
148 154 153 170 199 203 268 268 237 226 231 234 242 240 238 243 249 239 236 237 241 244 241 244 254 266 273 255 248 247 242 234 232 243 254 257 269 266 267 271 273 269 265 268 262 253 253 247 255
191 186 162 179 238 215 230 266 271 235 236 227 247 252 248 244 249 237 233 209 210 221 230 231 246 254 265 268 268 268 251 240 239 256 266 267 267 266 268 271 271 275 275 267 259 266 266 254 257